TimeCDT,TemperatureF,Dew PointF,Humidity,Sea Level PressureIn,VisibilityMPH,Wind Direction,Wind SpeedMPH,Gust SpeedMPH,PrecipitationIn,Events,Conditions,WindDirDegrees,DateUTC
12:53 AM,75.9,71.1,85,29.83,10.0,SSW,4.6,-,N/A,,Mostly Cloudy,200,2013-08-07 05:53:00
1:53 AM,75.0,71.1,87,29.81,10.0,SSW,4.6,-,N/A,,Partly Cloudy,210,2013-08-07 06:53:00
2:25 AM,73.4,71.6,94,29.84,10.0,NW,4.6,-,N/A,Thunderstorm,Clear,320,2013-08-07 07:25:00
2:53 AM,75.0,72.0,90,29.81,3.0,WNW,5.8,16.1,0.02,Rain-Thunderstorm,Light Thunderstorms and Rain,300,2013-08-07 07:53:00
3:33 AM,71.6,68.0,88,29.81,10.0,SW,3.5,-,0.01,,Clear,230,2013-08-07 08:33:00
3:53 AM,71.1,66.0,84,29.79,10.0,NNW,10.4,-,0.01,,Clear,330,2013-08-07 08:53:00
4:53 AM,69.1,66.0,90,29.79,10.0,Calm,Calm,-,N/A,,Clear,0,2013-08-07 09:53:00
5:53 AM,68.0,64.9,90,29.82,10.0,Calm,Calm,-,N/A,,Clear,0,2013-08-07 10:53:00
6:53 AM,70.0,64.9,84,29.84,10.0,Calm,Calm,-,N/A,,Mostly Cloudy,0,2013-08-07 11:53:00
7:53 AM,71.1,66.0,84,29.86,10.0,NNW,6.9,-,N/A,,Mostly Cloudy,330,2013-08-07 12:53:00
8:53 AM,73.9,68.0,82,29.88,10.0,North,9.2,-,N/A,,Clear,360,2013-08-07 13:53:00
9:53 AM,77.0,69.1,76,29.90,10.0,North,10.4,-,N/A,,Clear,360,2013-08-07 14:53:00
10:53 AM,80.1,69.1,69,29.90,10.0,North,9.2,-,N/A,,Clear,360,2013-08-07 15:53:00
11:53 AM,82.9,66.0,56,29.90,10.0,North,10.4,-,N/A,,Clear,10,2013-08-07 16:53:00
12:53 PM,84.0,64.9,53,29.91,10.0,NNE,8.1,-,N/A,,Clear,20,2013-08-07 17:53:00
1:53 PM,84.0,63.0,49,29.91,10.0,North,11.5,-,N/A,,Clear,350,2013-08-07 18:53:00
2:53 PM,84.9,61.0,44,29.91,10.0,North,12.7,-,N/A,,Clear,10,2013-08-07 19:53:00
3:53 PM,84.0,62.1,47,29.90,10.0,North,12.7,19.6,N/A,,Clear,360,2013-08-07 20:53:00
4:53 PM,84.0,62.1,47,29.91,10.0,NNE,9.2,-,N/A,,Clear,20,2013-08-07 21:53:00
5:53 PM,82.0,62.1,51,29.92,10.0,North,8.1,-,N/A,,Clear,10,2013-08-07 22:53:00
6:53 PM,80.1,62.1,54,29.93,10.0,NNE,9.2,-,N/A,,Clear,30,2013-08-07 23:53:00
7:53 PM,75.9,62.1,62,29.94,10.0,NNE,5.8,-,N/A,,Clear,30,2013-08-08 00:53:00
8:53 PM,72.0,62.1,71,29.95,10.0,NNE,4.6,-,N/A,,Clear,20,2013-08-08 01:53:00
9:53 PM,68.0,62.1,81,29.99,10.0,North,4.6,-,N/A,,Clear,360,2013-08-08 02:53:00
10:53 PM,66.0,62.1,87,29.99,10.0,NE,5.8,-,N/A,,Clear,50,2013-08-08 03:53:00
11:53 PM,66.0,61.0,84,29.98,10.0,NNE,4.6,-,N/A,,Clear,30,2013-08-08 04:53:00